Location: Boiro
(42.6475°N, 8.8834°W)
Time: 18:28:51
(UTC+01:00)

Transit 2A - Pass Details

Date: 30 November 2021
Orbit: 591 x 967 km, 66.7° (Epoch: 20 January)

Event Time Altitude Azimuth Distance (km) Brightness Sun altitude
Rises 01:50:50 0° 187° (S) 3,216 - -68.3°
Reaches altitude 10° 01:53:13 10° 180° (S) 2,353 - -68.1°
Maximum altitude 01:58:19 42° 111° (ESE) 1,199 - -67.8°
Drops below altitude 10° 02:03:56 10° 43° (NE) 2,594 - -67.4°
Sets 02:06:40 0° 37° (NE) 3,583 - -67.2°
